Time,TemperatureF,DewpointF,PressureIn,WindDirection,WindDirectionDegrees,WindSpeedMPH,WindSpeedGustMPH,Humidity,HourlyPrecipIn,Conditions,Clouds,dailyrainin,SoftwareType,DateUTC
2013-01-29 00:01:00,46.2,44.0,30.32,SSW,207,0.0,0.0,92,0.00,CLR,,0.00,WeatherDisplay:10.37,2013-01-29 06:01:00,
2013-01-29 00:06:00,46.1,43.9,30.31,SSW,207,0.0,0.0,92,0.00,CLR,,0.00,WeatherDisplay:10.37,2013-01-29 06:06:00,
2013-01-29 00:11:00,46.0,43.8,30.31,SSW,207,0.0,0.0,92,0.00,CLR,,0.00,WeatherDisplay:10.37,2013-01-29 06:11:00,
2013-01-29 00:16:00,45.8,43.6,30.31,SSW,207,0.0,0.0,92,0.00,CLR,,0.00,WeatherDisplay:10.37,2013-01-29 06:16:00,
2013-01-29 00:21:00,45.7,43.8,30.31,SSW,207,0.0,0.0,93,0.00,CLR,,0.00,WeatherDisplay:10.37,2013-01-29 06:21:00,
2013-01-29 00:26:00,45.5,43.6,30.31,SSW,207,0.0,0.0,93,0.00,CLR,,0.00,WeatherDisplay:10.37,2013-01-29 06:26:00,
2013-01-29 00:31:00,45.4,43.5,30.32,SSW,207,0.0,0.0,93,0.00,CLR,,0.00,WeatherDisplay:10.37,2013-01-29 06:31:00,
2013-01-29 00:36:00,45.2,43.3,30.32,SSW,207,0.0,0.0,93,0.00,CLR,,0.00,WeatherDisplay:10.37,2013-01-29 06:36:00,
2013-01-29 00:41:00,45.1,43.2,30.31,SSW,207,0.0,0.0,93,0.00,CLR,,0.00,WeatherDisplay:10.37,2013-01-29 06:41:00,
2013-01-29 00:46:00,45.1,43.2,30.31,SSW,207,0.0,0.0,93,0.00,CLR,,0.00,WeatherDisplay:10.37,2013-01-29 06:46:00,
2013-01-29 00:51:00,45.1,43.2,30.31,SSW,207,0.0,0.0,93,0.00,CLR,,0.00,WeatherDisplay:10.37,2013-01-29 06:51:00,
2013-01-29 00:56:00,44.9,43.0,30.32,SSW,207,0.0,0.0,93,0.00,CLR,,0.00,WeatherDisplay:10.37,2013-01-29 06:56:00,
2013-01-29 01:01:00,44.8,42.9,30.32,SSW,207,0.0,0.0,93,0.00,CLR,,0.00,WeatherDisplay:10.37,2013-01-29 07:01:00,
2013-01-29 01:06:00,44.6,42.7,30.32,SSW,207,0.0,0.0,93,0.00,CLR,,0.00,WeatherDisplay:10.37,2013-01-29 07:06:00,
2013-01-29 01:11:00,44.6,43.0,30.32,SSW,207,0.0,0.0,94,0.00,CLR,,0.00,WeatherDisplay:10.37,2013-01-29 07:11:00,
2013-01-29 01:16:00,44.6,43.0,30.32,SSW,207,0.0,0.0,94,0.00,CLR,,0.00,WeatherDisplay:10.37,2013-01-29 07:16:00,
2013-01-29 01:21:00,44.6,43.0,30.32,SSW,207,0.0,0.0,94,0.00,CLR,,0.00,WeatherDisplay:10.37,2013-01-29 07:21:00,
2013-01-29 01:26:00,44.6,43.0,30.32,SSW,207,0.0,0.0,94,0.00,CLR,,0.00,WeatherDisplay:10.37,2013-01-29 07:26:00,
2013-01-29 01:31:00,44.8,43.2,30.32,SSW,207,0.0,0.0,94,0.00,CLR,,0.00,WeatherDisplay:10.37,2013-01-29 07:31:00,
2013-01-29 01:36:00,44.8,43.2,30.32,SSW,207,0.0,0.0,94,0.00,CLR,,0.00,WeatherDisplay:10.37,2013-01-29 07:36:00,
2013-01-29 01:41:00,44.8,43.2,30.32,SSW,207,0.0,0.0,94,0.00,CLR,,0.00,WeatherDisplay:10.37,2013-01-29 07:41:00,
2013-01-29 01:46:00,44.9,43.3,30.32,SSW,207,0.0,0.0,94,0.00,CLR,,0.00,WeatherDisplay:10.37,2013-01-29 07:46:00,
2013-01-29 01:51:00,44.9,43.3,30.32,SSW,207,0.0,0.0,94,0.00,CLR,,0.00,WeatherDisplay:10.37,2013-01-29 07:51:00,
2013-01-29 01:56:00,44.9,43.3,30.32,SSW,207,0.0,0.0,94,0.00,CLR,,0.00,WeatherDisplay:10.37,2013-01-29 07:56:00,
2013-01-29 02:01:00,44.9,43.3,30.32,SSW,207,0.0,0.0,94,0.00,CLR,,0.00,WeatherDisplay:10.37,2013-01-29 08:01:00,
2013-01-29 02:06:00,45.1,43.8,30.32,SSW,207,0.0,0.0,95,0.00,CLR,,0.00,WeatherDisplay:10.37,2013-01-29 08:06:00,
2013-01-29 02:11:00,45.2,43.9,30.31,SSW,207,0.0,0.0,95,0.00,CLR,,0.00,WeatherDisplay:10.37,2013-01-29 08:11:00,
2013-01-29 02:16:00,45.2,43.9,30.31,SSW,207,0.0,0.0,95,0.00,CLR,,0.00,WeatherDisplay:10.37,2013-01-29 08:16:00,
2013-01-29 02:21:00,45.1,43.8,30.31,SSW,207,0.0,0.0,95,0.00,CLR,,0.00,WeatherDisplay:10.37,2013-01-29 08:21:00,
2013-01-29 02:26:00,45.1,43.8,30.31,SSW,207,0.0,0.0,95,0.00,CLR,,0.00,WeatherDisplay:10.37,2013-01-29 08:26:00,
2013-01-29 02:31:00,44.9,43.6,30.31,SSW,207,0.0,0.0,95,0.00,CLR,,0.00,WeatherDisplay:10.37,2013-01-29 08:31:00,
2013-01-29 02:36:00,44.8,43.5,30.31,SSW,207,0.0,0.0,95,0.00,CLR,,0.00,WeatherDisplay:10.37,2013-01-29 08:36:00,
2013-01-29 02:41:00,44.6,43.3,30.31,SSW,207,0.0,0.0,95,0.00,CLR,,0.00,WeatherDisplay:10.37,2013-01-29 08:41:00,
2013-01-29 02:46:00,44.5,43.2,30.31,SSW,207,0.0,0.0,95,0.00,CLR,,0.00,WeatherDisplay:10.37,2013-01-29 08:46:00,
2013-01-29 02:51:00,44.5,43.2,30.31,SSW,207,0.0,0.0,95,0.00,CLR,,0.00,WeatherDisplay:10.37,2013-01-29 08:51:00,
2013-01-29 02:56:00,44.3,43.0,30.31,SSW,207,0.0,0.0,95,0.00,CLR,,0.00,WeatherDisplay:10.37,2013-01-29 08:56:00,
2013-01-29 03:01:00,44.2,42.6,30.30,SSW,207,0.0,0.0,94,0.00,CLR,,0.00,WeatherDisplay:10.37,2013-01-29 09:01:00,
2013-01-29 03:06:00,44.1,42.8,30.30,SSW,207,0.0,0.0,95,0.00,CLR,,0.00,WeatherDisplay:10.37,2013-01-29 09:06:00,
2013-01-29 03:11:00,44.1,42.8,30.30,SSW,207,0.0,0.0,95,0.00,CLR,,0.00,WeatherDisplay:10.37,2013-01-29 09:11:00,
2013-01-29 03:16:00,44.2,42.9,30.30,SSW,207,0.0,0.0,95,0.00,CLR,,0.00,WeatherDisplay:10.37,2013-01-29 09:16:00,
2013-01-29 03:21:00,44.3,43.0,30.29,SSW,207,0.0,0.0,95,0.00,CLR,,0.00,WeatherDisplay:10.37,2013-01-29 09:21:00,
2013-01-29 03:26:00,44.3,43.0,30.29,SSW,207,0.0,0.0,95,0.00,CLR,,0.00,WeatherDisplay:10.37,2013-01-29 09:26:00,
2013-01-29 03:31:00,44.3,43.0,30.29,SSW,207,0.0,0.0,95,0.00,CLR,,0.00,WeatherDisplay:10.37,2013-01-29 09:31:00,
2013-01-29 03:36:00,44.5,43.2,30.29,SSW,207,0.0,0.0,95,0.00,CLR,,0.00,WeatherDisplay:10.37,2013-01-29 09:36:00,
2013-01-29 03:41:00,44.5,43.2,30.29,SSW,207,0.0,0.0,95,0.00,CLR,,0.00,WeatherDisplay:10.37,2013-01-29 09:41:00,
2013-01-29 03:46:00,44.5,43.2,30.28,SSW,207,0.0,0.0,95,0.00,CLR,,0.00,WeatherDisplay:10.37,2013-01-29 09:46:00,
2013-01-29 03:51:00,44.8,43.5,30.28,SSW,207,0.0,0.0,95,0.00,CLR,,0.00,WeatherDisplay:10.37,2013-01-29 09:51:00,
2013-01-29 03:56:00,45.1,43.8,30.28,SSW,207,0.0,0.0,95,0.00,CLR,,0.00,WeatherDisplay:10.37,2013-01-29 09:56:00,
2013-01-29 04:01:00,45.4,44.3,30.28,SSW,207,0.0,0.0,96,0.00,CLR,,0.00,WeatherDisplay:10.37,2013-01-29 10:01:00,
2013-01-29 04:06:00,45.7,44.6,30.28,SSW,207,0.0,0.0,96,0.00,CLR,,0.00,WeatherDisplay:10.37,2013-01-29 10:06:00,
2013-01-29 04:11:00,46.0,44.9,30.27,SSW,207,0.0,0.0,96,0.00,CLR,,0.00,WeatherDisplay:10.37,2013-01-29 10:11:00,
2013-01-29 04:16:00,46.0,44.9,30.27,SSW,207,0.0,0.0,96,0.00,CLR,,0.00,WeatherDisplay:10.37,2013-01-29 10:16:00,
2013-01-29 04:21:00,46.1,45.0,30.27,SSW,207,0.0,0.0,96,0.00,CLR,,0.00,WeatherDisplay:10.37,2013-01-29 10:21:00,
2013-01-29 04:26:00,46.2,45.1,30.27,SSW,207,0.0,0.0,96,0.00,CLR,,0.00,WeatherDisplay:10.37,2013-01-29 10:26:00,
2013-01-29 04:31:00,46.4,45.3,30.26,SSW,207,0.0,0.0,96,0.00,CLR,,0.00,WeatherDisplay:10.37,2013-01-29 10:31:00,
2013-01-29 04:36:00,46.5,45.4,30.26,SSW,207,0.0,0.0,96,0.00,CLR,,0.00,WeatherDisplay:10.37,2013-01-29 10:36:00,
2013-01-29 04:41:00,46.7,45.6,30.26,SSW,207,0.0,0.0,96,0.00,CLR,,0.00,WeatherDisplay:10.37,2013-01-29 10:41:00,
2013-01-29 04:46:00,47.0,45.9,30.26,SSW,207,0.0,0.0,96,0.00,CLR,,0.00,WeatherDisplay:10.37,2013-01-29 10:46:00,
2013-01-29 04:51:00,47.0,45.9,30.26,SSW,207,0.0,0.0,96,0.00,CLR,,0.00,WeatherDisplay:10.37,2013-01-29 10:51:00,
2013-01-29 04:56:00,47.0,45.9,30.26,SSW,207,0.0,0.0,96,0.00,CLR,,0.00,WeatherDisplay:10.37,2013-01-29 10:56:00,
2013-01-29 05:01:00,47.0,45.9,30.26,SSW,207,0.0,0.0,96,0.00,CLR,,0.00,WeatherDisplay:10.37,2013-01-29 11:01:00,
2013-01-29 05:06:00,47.0,45.9,30.26,SSW,207,0.0,0.0,96,0.00,CLR,,0.00,WeatherDisplay:10.37,2013-01-29 11:06:00,
2013-01-29 05:11:00,47.0,45.6,30.26,SSW,207,0.0,0.0,95,0.00,CLR,,0.00,WeatherDisplay:10.37,2013-01-29 11:11:00,
2013-01-29 05:16:00,47.1,45.7,30.26,SSW,207,0.0,0.0,95,0.00,CLR,,0.00,WeatherDisplay:10.37,2013-01-29 11:16:00,
2013-01-29 05:21:00,47.1,45.7,30.26,SSW,207,0.0,0.0,95,0.00,CLR,,0.00,WeatherDisplay:10.37,2013-01-29 11:21:00,
2013-01-29 05:26:00,47.3,45.9,30.26,SSW,207,0.0,0.0,95,0.00,CLR,,0.00,WeatherDisplay:10.37,2013-01-29 11:26:00,
2013-01-29 05:31:00,47.3,45.9,30.26,SSW,207,0.0,0.0,95,0.00,CLR,,0.00,WeatherDisplay:10.37,2013-01-29 11:31:00,
2013-01-29 05:36:00,47.4,46.0,30.26,SSW,207,0.0,0.0,95,0.00,CLR,,0.00,WeatherDisplay:10.37,2013-01-29 11:36:00,
2013-01-29 05:41:00,47.6,46.2,30.26,SSW,207,0.0,0.0,95,0.00,CLR,,0.00,WeatherDisplay:10.37,2013-01-29 11:41:00,
2013-01-29 05:46:00,47.7,46.3,30.25,SSW,207,0.0,0.0,95,0.00,CLR,,0.00,WeatherDisplay:10.37,2013-01-29 11:46:00,
2013-01-29 05:51:00,48.0,46.6,30.26,SSW,207,0.0,0.0,95,0.00,CLR,,0.00,WeatherDisplay:10.37,2013-01-29 11:51:00,
2013-01-29 05:56:00,48.0,46.6,30.26,SSW,207,0.0,0.0,95,0.00,CLR,,0.00,WeatherDisplay:10.37,2013-01-29 11:56:00,
2013-01-29 06:01:00,48.3,46.9,30.26,SSW,207,0.0,0.0,95,0.00,CLR,,0.00,WeatherDisplay:10.37,2013-01-29 12:01:00,
2013-01-29 06:06:00,48.6,47.5,30.25,SSW,207,0.0,0.0,96,0.00,CLR,,0.00,WeatherDisplay:10.37,2013-01-29 12:06:00,
2013-01-29 06:11:00,48.9,47.8,30.26,SSW,207,0.0,0.0,96,0.00,CLR,,0.00,WeatherDisplay:10.37,2013-01-29 12:11:00,
2013-01-29 06:16:00,49.2,48.1,30.26,SSW,207,0.0,0.0,96,0.00,CLR,,0.00,WeatherDisplay:10.37,2013-01-29 12:16:00,
2013-01-29 06:21:00,49.5,48.4,30.26,SSW,207,2.3,0.0,96,0.00,CLR,,0.00,WeatherDisplay:10.37,2013-01-29 12:21:00,
2013-01-29 06:26:00,49.4,48.0,30.26,SSW,207,0.0,0.0,95,0.00,CLR,,0.00,WeatherDisplay:10.37,2013-01-29 12:26:00,
2013-01-29 06:31:00,49.2,47.8,30.26,SSW,207,0.0,0.0,95,0.00,CLR,,0.00,WeatherDisplay:10.37,2013-01-29 12:31:00,
2013-01-29 06:36:00,49.1,47.7,30.26,SSW,207,0.0,0.0,95,0.00,CLR,,0.00,WeatherDisplay:10.37,2013-01-29 12:36:00,
2013-01-29 06:41:00,48.9,47.2,30.25,SSW,207,0.0,0.0,94,0.00,CLR,,0.00,WeatherDisplay:10.37,2013-01-29 12:41:00,
2013-01-29 06:46:00,48.9,47.2,30.25,SSW,207,0.0,0.0,94,0.00,CLR,,0.00,WeatherDisplay:10.37,2013-01-29 12:46:00,
2013-01-29 06:51:00,48.9,47.2,30.25,SSW,207,0.0,0.0,94,0.00,CLR,,0.00,WeatherDisplay:10.37,2013-01-29 12:51:00,
2013-01-29 06:56:00,48.9,47.2,30.25,SSW,207,0.0,0.0,94,0.00,CLR,,0.00,WeatherDisplay:10.37,2013-01-29 12:56:00,
2013-01-29 07:01:00,48.9,47.2,30.26,SSW,207,0.0,0.0,94,0.00,CLR,,0.00,WeatherDisplay:10.37,2013-01-29 13:01:00,
2013-01-29 07:06:00,49.1,47.4,30.26,SSW,207,0.0,0.0,94,0.00,CLR,,0.00,WeatherDisplay:10.37,2013-01-29 13:06:00,
2013-01-29 07:11:00,49.2,47.5,30.26,SSW,207,1.1,1.1,94,0.00,CLR,,0.00,WeatherDisplay:10.37,2013-01-29 13:11:00,
2013-01-29 07:16:00,49.5,47.8,30.26,SSW,207,0.0,0.0,94,0.00,CLR,,0.00,WeatherDisplay:10.37,2013-01-29 13:16:00,
2013-01-29 07:21:00,49.6,47.9,30.26,SSW,207,0.0,0.0,94,0.00,CLR,,0.00,WeatherDisplay:10.37,2013-01-29 13:21:00,
2013-01-29 07:26:00,49.8,47.9,30.26,SSW,207,0.0,0.0,93,0.00,CLR,,0.00,WeatherDisplay:10.37,2013-01-29 13:26:00,
2013-01-29 07:31:00,49.9,48.0,30.26,SSW,207,0.0,0.0,93,0.00,CLR,,0.00,WeatherDisplay:10.37,2013-01-29 13:31:00,
2013-01-29 07:36:00,49.9,48.0,30.26,SSW,207,1.1,1.1,93,0.00,CLR,,0.00,WeatherDisplay:10.37,2013-01-29 13:36:00,
2013-01-29 07:41:00,49.9,48.0,30.26,SSW,207,0.0,0.0,93,0.00,CLR,,0.00,WeatherDisplay:10.37,2013-01-29 13:41:00,
2013-01-29 07:46:00,49.9,48.0,30.26,SSW,207,0.0,0.0,93,0.00,CLR,,0.00,WeatherDisplay:10.37,2013-01-29 13:46:00,
2013-01-29 07:51:00,49.9,47.7,30.26,SSW,207,0.0,0.0,92,0.00,CLR,,0.00,WeatherDisplay:10.37,2013-01-29 13:51:00,
2013-01-29 07:56:00,50.1,47.9,30.26,SSW,207,0.0,0.0,92,0.00,CLR,,0.00,WeatherDisplay:10.37,2013-01-29 13:56:00,
2013-01-29 08:01:00,50.2,48.0,30.26,SSW,207,0.0,0.0,92,0.00,CLR,,0.00,WeatherDisplay:10.37,2013-01-29 14:01:00,
2013-01-29 08:06:00,50.2,48.0,30.26,SSW,207,0.0,0.0,92,0.00,CLR,,0.00,WeatherDisplay:10.37,2013-01-29 14:06:00,
2013-01-29 08:11:00,50.4,48.2,30.26,SSW,207,0.0,0.0,92,0.00,CLR,,0.00,WeatherDisplay:10.37,2013-01-29 14:11:00,
2013-01-29 08:16:00,50.5,48.3,30.26,SSW,207,0.0,0.0,92,0.00,CLR,,0.00,WeatherDisplay:10.37,2013-01-29 14:16:00,
2013-01-29 08:21:00,50.7,48.5,30.25,SSW,207,0.0,0.0,92,0.00,CLR,,0.00,WeatherDisplay:10.37,2013-01-29 14:21:00,
2013-01-29 08:26:00,51.0,48.8,30.25,SSW,207,0.0,0.0,92,0.00,CLR,,0.00,WeatherDisplay:10.37,2013-01-29 14:26:00,
2013-01-29 08:31:00,51.3,49.1,30.25,SSW,207,0.0,0.0,92,0.00,CLR,,0.00,WeatherDisplay:10.37,2013-01-29 14:31:00,
2013-01-29 08:36:00,51.6,49.4,30.25,SSW,207,0.0,0.0,92,0.00,CLR,,0.00,WeatherDisplay:10.37,2013-01-29 14:36:00,
2013-01-29 08:41:00,51.9,49.4,30.25,SSW,207,0.0,0.0,91,0.00,CLR,,0.00,WeatherDisplay:10.37,2013-01-29 14:41:00,
2013-01-29 08:46:00,52.2,49.7,30.25,SSW,207,0.0,0.0,91,0.00,CLR,,0.00,WeatherDisplay:10.37,2013-01-29 14:46:00,
2013-01-29 08:51:00,52.5,49.9,30.25,SSW,207,0.0,0.0,91,0.00,CLR,,0.00,WeatherDisplay:10.37,2013-01-29 14:51:00,
2013-01-29 08:56:00,52.6,49.8,30.25,SSW,207,0.0,0.0,90,0.00,CLR,,0.00,WeatherDisplay:10.37,2013-01-29 14:56:00,
2013-01-29 09:01:00,52.9,50.0,30.25,SSW,207,0.0,0.0,90,0.00,CLR,,0.00,WeatherDisplay:10.37,2013-01-29 15:01:00,
2013-01-29 09:06:00,53.2,50.3,30.25,SSW,207,0.0,0.0,90,0.00,CLR,,0.00,WeatherDisplay:10.37,2013-01-29 15:06:00,
2013-01-29 09:11:00,53.5,50.6,30.25,SSW,207,0.0,0.0,90,0.00,CLR,,0.00,WeatherDisplay:10.37,2013-01-29 15:11:00,
2013-01-29 09:17:00,53.8,50.6,30.25,SSW,207,0.0,0.0,89,0.00,CLR,,0.00,WeatherDisplay:10.37,2013-01-29 15:17:00,
2013-01-29 09:22:00,54.1,50.6,30.25,SSW,207,0.0,0.0,88,0.00,CLR,,0.00,WeatherDisplay:10.37,2013-01-29 15:22:00,
2013-01-29 09:27:00,54.4,50.9,30.25,ESE,103,0.0,0.0,88,0.00,CLR,,0.00,WeatherDisplay:10.37,2013-01-29 15:27:00,
2013-01-29 09:32:00,54.5,50.7,30.24,ESE,103,1.0,1.0,87,0.00,CLR,,0.00,WeatherDisplay:10.37,2013-01-29 15:32:00,
2013-01-29 09:37:00,54.7,50.9,30.24,ESE,103,0.0,0.0,87,0.00,CLR,,0.00,WeatherDisplay:10.37,2013-01-29 15:37:00,
2013-01-29 09:42:00,54.8,51.0,30.24,ESE,103,0.0,0.0,87,0.00,CLR,,0.00,WeatherDisplay:10.37,2013-01-29 15:42:00,
2013-01-29 09:47:00,55.1,51.3,30.24,ESE,103,0.0,0.0,87,0.00,CLR,,0.00,WeatherDisplay:10.37,2013-01-29 15:47:00,
2013-01-29 09:52:00,55.3,51.5,30.24,ESE,103,0.0,0.0,87,0.00,CLR,,0.00,WeatherDisplay:10.37,2013-01-29 15:52:00,
2013-01-29 09:57:00,55.4,51.3,30.24,ESE,103,0.0,0.0,86,0.00,CLR,,0.00,WeatherDisplay:10.37,2013-01-29 15:57:00,
2013-01-29 10:02:00,55.6,51.5,30.24,ESE,103,0.0,0.0,86,0.00,CLR,,0.00,WeatherDisplay:10.37,2013-01-29 16:02:00,
2013-01-29 10:07:00,55.7,51.3,30.24,ESE,103,0.0,0.0,85,0.00,CLR,,0.00,WeatherDisplay:10.37,2013-01-29 16:07:00,
2013-01-29 10:12:00,55.7,51.3,30.24,ESE,103,0.0,0.0,85,0.00,CLR,,0.00,WeatherDisplay:10.37,2013-01-29 16:12:00,
2013-01-29 10:17:00,55.9,51.8,30.23,ESE,103,0.0,0.0,86,0.00,CLR,,0.00,WeatherDisplay:10.37,2013-01-29 16:17:00,
2013-01-29 10:22:00,56.0,51.9,30.23,ESE,103,0.0,0.0,86,0.00,CLR,,0.00,WeatherDisplay:10.37,2013-01-29 16:22:00,
2013-01-29 10:27:00,56.2,52.1,30.23,ESE,103,1.1,1.1,86,0.00,CLR,,0.00,WeatherDisplay:10.37,2013-01-29 16:27:00,
2013-01-29 10:32:00,56.5,52.4,30.22,ESE,103,1.1,0.0,86,0.00,CLR,,0.00,WeatherDisplay:10.37,2013-01-29 16:32:00,
2013-01-29 10:37:00,56.5,52.4,30.22,ESE,103,0.0,0.0,86,0.00,CLR,,0.00,WeatherDisplay:10.37,2013-01-29 16:37:00,
2013-01-29 10:42:00,56.6,52.5,30.22,ESE,103,1.1,0.0,86,0.00,CLR,,0.00,WeatherDisplay:10.37,2013-01-29 16:42:00,
2013-01-29 10:47:00,56.7,52.9,30.21,ESE,103,0.0,0.0,87,0.00,CLR,,0.00,WeatherDisplay:10.37,2013-01-29 16:47:00,
2013-01-29 10:52:00,56.9,53.1,30.21,ESE,103,0.0,0.0,87,0.00,CLR,,0.00,WeatherDisplay:10.37,2013-01-29 16:52:00,
2013-01-29 10:57:00,57.0,53.2,30.21,ESE,103,0.0,0.0,87,0.00,CLR,,0.00,WeatherDisplay:10.37,2013-01-29 16:57:00,
2013-01-29 11:02:00,57.2,53.4,30.21,ESE,103,1.1,1.1,87,0.00,CLR,,0.00,WeatherDisplay:10.37,2013-01-29 17:02:00,
2013-01-29 11:07:00,57.3,53.5,30.20,ESE,103,1.1,1.1,87,0.00,CLR,,0.00,WeatherDisplay:10.37,2013-01-29 17:07:00,
2013-01-29 11:12:00,57.5,53.7,30.20,ESE,103,0.0,0.0,87,0.00,CLR,,0.00,WeatherDisplay:10.37,2013-01-29 17:12:00,
2013-01-29 11:17:00,57.5,53.7,30.20,ESE,103,0.0,0.0,87,0.00,CLR,,0.00,WeatherDisplay:10.37,2013-01-29 17:17:00,
2013-01-29 11:22:00,57.8,54.0,30.19,ESE,103,0.0,0.0,87,0.00,CLR,,0.00,WeatherDisplay:10.37,2013-01-29 17:22:00,
2013-01-29 11:27:00,57.8,54.0,30.19,ESE,103,0.0,0.0,87,0.00,CLR,,0.00,WeatherDisplay:10.37,2013-01-29 17:27:00,
2013-01-29 11:32:00,58.0,54.2,30.19,ESE,103,0.0,0.0,87,0.00,CLR,,0.00,WeatherDisplay:10.37,2013-01-29 17:32:00,
2013-01-29 11:37:00,58.1,53.9,30.18,ESE,103,0.0,0.0,86,0.00,CLR,,0.00,WeatherDisplay:10.37,2013-01-29 17:37:00,
2013-01-29 11:42:00,58.3,54.4,30.18,NNE,21,2.3,2.3,87,0.00,CLR,,0.00,WeatherDisplay:10.37,2013-01-29 17:42:00,
2013-01-29 11:47:00,58.4,54.5,30.18,NNE,13,0.0,0.0,87,0.00,CLR,,0.00,WeatherDisplay:10.37,2013-01-29 17:47:00,
2013-01-29 11:52:00,58.6,54.7,30.17,NNE,13,1.1,0.0,87,0.00,CLR,,0.00,WeatherDisplay:10.37,2013-01-29 17:52:00,
2013-01-29 11:57:00,58.7,54.8,30.17,NNE,13,0.0,0.0,87,0.00,CLR,,0.00,WeatherDisplay:10.37,2013-01-29 17:57:00,
2013-01-29 12:02:00,58.9,55.0,30.17,NNE,13,1.1,0.0,87,0.00,CLR,,0.00,WeatherDisplay:10.37,2013-01-29 18:02:00,
2013-01-29 12:07:00,59.0,55.1,30.17,NNE,13,0.0,0.0,87,0.00,CLR,,0.00,WeatherDisplay:10.37,2013-01-29 18:07:00,
2013-01-29 12:12:00,59.0,54.8,30.16,NNE,13,0.0,0.0,86,0.00,CLR,,0.00,WeatherDisplay:10.37,2013-01-29 18:12:00,
2013-01-29 12:17:00,59.0,54.8,30.16,NNE,13,0.0,0.0,86,0.00,CLR,,0.00,WeatherDisplay:10.37,2013-01-29 18:17:00,
2013-01-29 12:22:00,59.0,54.8,30.15,NNE,13,2.3,0.0,86,0.00,CLR,,0.00,WeatherDisplay:10.37,2013-01-29 18:22:00,
2013-01-29 12:27:00,59.2,55.0,30.15,NNE,13,0.0,0.0,86,0.00,CLR,,0.00,WeatherDisplay:10.37,2013-01-29 18:27:00,
2013-01-29 12:32:00,59.2,55.0,30.15,NNE,13,0.0,0.0,86,0.00,CLR,,0.00,WeatherDisplay:10.37,2013-01-29 18:32:00,
2013-01-29 12:37:00,59.3,55.1,30.15,NNE,13,0.0,0.0,86,0.00,CLR,,0.00,WeatherDisplay:10.37,2013-01-29 18:37:00,
2013-01-29 12:42:00,59.3,54.8,30.15,NNE,13,0.0,0.0,85,0.00,CLR,,0.00,WeatherDisplay:10.37,2013-01-29 18:42:00,
2013-01-29 12:47:00,59.3,54.8,30.14,NNE,13,0.0,0.0,85,0.00,CLR,,0.00,WeatherDisplay:10.37,2013-01-29 18:47:00,
2013-01-29 12:52:00,59.5,55.0,30.14,NNE,13,0.0,0.0,85,0.00,CLR,,0.00,WeatherDisplay:10.37,2013-01-29 18:52:00,
2013-01-29 12:57:00,59.5,55.0,30.14,NNE,13,0.0,0.0,85,0.00,CLR,,0.00,WeatherDisplay:10.37,2013-01-29 18:57:00,
2013-01-29 13:02:00,59.6,55.1,30.13,NNE,13,0.0,0.0,85,0.00,CLR,,0.00,WeatherDisplay:10.37,2013-01-29 19:02:00,
2013-01-29 13:07:00,59.6,55.1,30.13,NNE,13,0.0,0.0,85,0.00,CLR,,0.00,WeatherDisplay:10.37,2013-01-29 19:07:00,
2013-01-29 13:12:00,59.8,55.3,30.13,NNE,13,0.0,0.0,85,0.00,CLR,,0.00,WeatherDisplay:10.37,2013-01-29 19:12:00,
2013-01-29 13:17:00,59.8,55.3,30.13,NNE,13,0.0,0.0,85,0.00,CLR,,0.00,WeatherDisplay:10.37,2013-01-29 19:17:00,
2013-01-29 13:22:00,59.9,55.4,30.12,NNE,13,0.0,0.0,85,0.00,CLR,,0.00,WeatherDisplay:10.37,2013-01-29 19:22:00,
2013-01-29 13:27:00,60.1,55.6,30.12,NNE,13,0.0,0.0,85,0.00,CLR,,0.00,WeatherDisplay:10.37,2013-01-29 19:27:00,
2013-01-29 13:32:00,60.1,55.2,30.12,NNE,13,0.0,0.0,84,0.00,CLR,,0.00,WeatherDisplay:10.37,2013-01-29 19:32:00,
2013-01-29 13:37:00,59.9,55.4,30.12,NNE,13,0.0,0.0,85,0.00,CLR,,0.00,WeatherDisplay:10.37,2013-01-29 19:37:00,
2013-01-29 13:42:00,59.9,55.4,30.12,NNE,13,0.0,0.0,85,0.00,CLR,,0.00,WeatherDisplay:10.37,2013-01-29 19:42:00,
2013-01-29 13:47:00,60.1,55.6,30.11,NNE,13,0.0,0.0,85,0.00,CLR,,0.00,WeatherDisplay:10.37,2013-01-29 19:47:00,
2013-01-29 13:52:00,60.1,55.6,30.12,NNE,13,0.0,0.0,85,0.00,CLR,,0.00,WeatherDisplay:10.37,2013-01-29 19:52:00,
2013-01-29 13:57:00,60.1,55.6,30.11,NNE,13,0.0,0.0,85,0.00,CLR,,0.00,WeatherDisplay:10.37,2013-01-29 19:57:00,
2013-01-29 14:00:00,60.1,55.6,30.11,NNE,13,0.0,0.0,85,0.00,CLR,,0.00,WeatherDisplay:10.37,2013-01-29 20:00:00,
2013-01-29 14:05:00,60.1,55.6,30.10,NNE,13,0.0,0.0,85,0.00,CLR,,0.00,WeatherDisplay:10.37,2013-01-29 20:05:00,
2013-01-29 14:10:00,60.1,55.6,30.10,NNE,13,0.0,0.0,85,0.00,CLR,,0.00,WeatherDisplay:10.37,2013-01-29 20:10:00,
2013-01-29 14:15:00,60.2,55.7,30.10,NNE,13,0.0,0.0,85,0.00,CLR,,0.00,WeatherDisplay:10.37,2013-01-29 20:15:00,
2013-01-29 14:20:00,60.4,55.9,30.10,NNE,13,0.0,0.0,85,0.00,CLR,,0.00,WeatherDisplay:10.37,2013-01-29 20:20:00,
2013-01-29 14:25:00,60.4,55.5,30.10,NNE,13,0.0,0.0,84,0.00,CLR,,0.00,WeatherDisplay:10.37,2013-01-29 20:25:00,
2013-01-29 14:30:00,60.5,56.0,30.10,NNE,13,0.0,0.0,85,0.00,CLR,,0.00,WeatherDisplay:10.37,2013-01-29 20:30:00,
2013-01-29 14:35:00,60.5,56.0,30.10,NNE,13,0.0,0.0,85,0.00,CLR,,0.00,WeatherDisplay:10.37,2013-01-29 20:35:00,
2013-01-29 14:40:00,60.7,56.2,30.09,NNE,13,0.0,0.0,85,0.00,CLR,,0.00,WeatherDisplay:10.37,2013-01-29 20:40:00,
2013-01-29 14:45:00,60.7,56.2,30.09,NNE,13,0.0,0.0,85,0.00,CLR,,0.00,WeatherDisplay:10.37,2013-01-29 20:45:00,
2013-01-29 14:50:00,60.7,55.8,30.09,NNE,13,0.0,0.0,84,0.00,CLR,,0.00,WeatherDisplay:10.37,2013-01-29 20:50:00,
2013-01-29 14:55:00,60.7,55.8,30.09,NNE,13,1.1,0.0,84,0.00,CLR,,0.00,WeatherDisplay:10.37,2013-01-29 20:55:00,
2013-01-29 15:00:00,60.9,56.4,30.09,NNE,13,0.0,0.0,85,0.00,CLR,,0.00,WeatherDisplay:10.37,2013-01-29 21:00:00,
2013-01-29 15:05:00,60.9,56.4,30.08,NNE,13,0.0,0.0,85,0.00,CLR,,0.00,WeatherDisplay:10.37,2013-01-29 21:05:00,
2013-01-29 15:10:00,60.9,56.4,30.08,NNE,13,0.0,0.0,85,0.00,CLR,,0.00,WeatherDisplay:10.37,2013-01-29 21:10:00,
2013-01-29 15:15:00,60.9,56.4,30.07,NNE,13,0.0,0.0,85,0.00,CLR,,0.00,WeatherDisplay:10.37,2013-01-29 21:15:00,
2013-01-29 15:20:00,61.0,56.5,30.07,NNE,13,0.0,0.0,85,0.00,CLR,,0.00,WeatherDisplay:10.37,2013-01-29 21:20:00,
2013-01-29 15:25:00,60.9,56.4,30.07,NNE,13,1.1,0.0,85,0.00,CLR,,0.00,WeatherDisplay:10.37,2013-01-29 21:25:00,
2013-01-29 15:30:00,60.9,56.4,30.07,NNE,13,0.0,0.0,85,0.00,CLR,,0.00,WeatherDisplay:10.37,2013-01-29 21:30:00,
2013-01-29 15:35:00,60.9,56.4,30.06,NNE,13,0.0,0.0,85,0.00,CLR,,0.00,WeatherDisplay:10.37,2013-01-29 21:35:00,
2013-01-29 15:40:00,60.9,56.7,30.06,NNE,13,1.1,0.0,86,0.00,CLR,,0.00,WeatherDisplay:10.37,2013-01-29 21:40:00,
2013-01-29 15:45:00,60.7,56.5,30.06,NNE,13,0.0,0.0,86,0.00,CLR,,0.00,WeatherDisplay:10.37,2013-01-29 21:45:00,
2013-01-29 15:50:00,60.5,56.3,30.06,NNE,13,0.0,0.0,86,0.00,CLR,,0.00,WeatherDisplay:10.37,2013-01-29 21:50:00,
2013-01-29 15:55:00,60.4,56.2,30.06,North,360,0.0,0.0,86,0.00,CLR,,0.00,WeatherDisplay:10.37,2013-01-29 21:55:00,
2013-01-29 16:00:00,60.4,56.5,30.05,North,360,1.1,0.0,87,0.00,CLR,,0.00,WeatherDisplay:10.37,2013-01-29 22:00:00,
2013-01-29 16:05:00,60.2,56.3,30.05,North,360,0.0,0.1,87,0.00,CLR,,0.00,WeatherDisplay:10.37,2013-01-29 22:05:00,
2013-01-29 16:10:00,60.2,56.3,30.05,North,360,0.0,0.0,87,0.00,CLR,,0.00,WeatherDisplay:10.37,2013-01-29 22:10:00,
2013-01-29 16:15:00,60.1,56.2,30.05,North,360,0.0,0.0,87,0.00,CLR,,0.00,WeatherDisplay:10.37,2013-01-29 22:15:00,
2013-01-29 16:20:00,60.1,56.5,30.05,North,360,0.0,0.0,88,0.00,CLR,,0.00,WeatherDisplay:10.37,2013-01-29 22:20:00,
2013-01-29 16:25:00,59.9,56.3,30.04,North,360,0.0,0.0,88,0.00,CLR,,0.00,WeatherDisplay:10.37,2013-01-29 22:25:00,
2013-01-29 16:30:00,59.9,56.3,30.04,North,360,0.0,0.0,88,0.00,CLR,,0.00,WeatherDisplay:10.37,2013-01-29 22:30:00,
2013-01-29 16:35:00,59.8,56.2,30.04,North,360,0.0,0.0,88,0.00,CLR,,0.00,WeatherDisplay:10.37,2013-01-29 22:35:00,
2013-01-29 16:40:00,59.8,56.6,30.04,North,360,0.0,0.0,89,0.00,CLR,,0.00,WeatherDisplay:10.37,2013-01-29 22:40:00,
2013-01-29 16:45:00,59.6,56.4,30.04,North,360,0.0,0.0,89,0.00,CLR,,0.00,WeatherDisplay:10.37,2013-01-29 22:45:00,
2013-01-29 16:50:00,59.6,56.4,30.04,North,360,0.0,0.0,89,0.00,CLR,,0.00,WeatherDisplay:10.37,2013-01-29 22:50:00,
2013-01-29 16:55:00,59.6,56.4,30.04,North,360,0.0,0.0,89,0.00,CLR,,0.00,WeatherDisplay:10.37,2013-01-29 22:55:00,
2013-01-29 17:00:00,59.6,56.4,30.04,North,360,0.0,0.0,89,0.00,CLR,,0.00,WeatherDisplay:10.37,2013-01-29 23:00:00,
2013-01-29 17:05:00,59.5,56.6,30.03,North,360,0.0,0.0,90,0.00,CLR,,0.00,WeatherDisplay:10.37,2013-01-29 23:05:00,
2013-01-29 17:10:00,59.5,56.6,30.03,North,360,0.0,0.0,90,0.00,CLR,,0.00,WeatherDisplay:10.37,2013-01-29 23:10:00,
2013-01-29 17:15:00,59.3,56.4,30.04,North,360,0.0,0.0,90,0.00,CLR,,0.00,WeatherDisplay:10.37,2013-01-29 23:15:00,
2013-01-29 17:20:00,59.3,56.4,30.03,North,360,0.0,0.0,90,0.00,CLR,,0.00,WeatherDisplay:10.37,2013-01-29 23:20:00,
2013-01-29 17:25:00,59.2,56.3,30.04,North,360,0.0,0.0,90,0.00,CLR,,0.00,WeatherDisplay:10.37,2013-01-29 23:25:00,
2013-01-29 17:30:00,59.2,56.3,30.04,North,360,0.0,0.0,90,0.00,CLR,,0.00,WeatherDisplay:10.37,2013-01-29 23:30:00,
2013-01-29 17:35:00,59.2,56.3,30.04,North,360,0.0,0.0,90,0.00,CLR,,0.00,WeatherDisplay:10.37,2013-01-29 23:35:00,
2013-01-29 17:40:00,59.0,56.4,30.04,North,360,0.0,0.0,91,0.00,CLR,,0.00,WeatherDisplay:10.37,2013-01-29 23:40:00,
2013-01-29 17:45:00,58.9,56.3,30.04,North,360,0.0,0.0,91,0.00,CLR,,0.00,WeatherDisplay:10.37,2013-01-29 23:45:00,
2013-01-29 17:50:00,58.9,56.3,30.04,North,360,0.0,0.0,91,0.00,CLR,,0.00,WeatherDisplay:10.37,2013-01-29 23:50:00,
2013-01-29 17:55:00,58.9,56.6,30.04,North,360,0.0,0.0,92,0.00,CLR,,0.00,WeatherDisplay:10.37,2013-01-29 23:55:00,
2013-01-29 18:00:00,59.0,56.7,30.05,North,360,0.0,0.0,92,0.00,CLR,,0.00,WeatherDisplay:10.37,2013-01-30 00:00:00,
2013-01-29 18:05:00,59.0,56.7,30.04,North,360,0.0,0.0,92,0.00,CLR,,0.00,WeatherDisplay:10.37,2013-01-30 00:05:00,
2013-01-29 18:10:00,59.0,56.7,30.04,North,360,0.0,0.0,92,0.00,CLR,,0.00,WeatherDisplay:10.37,2013-01-30 00:10:00,
2013-01-29 18:16:00,58.9,56.6,30.04,North,360,0.0,0.0,92,0.00,CLR,,0.00,WeatherDisplay:10.37,2013-01-30 00:16:00,
2013-01-29 18:21:00,58.9,56.6,30.03,North,360,0.0,0.0,92,0.00,CLR,,0.00,WeatherDisplay:10.37,2013-01-30 00:21:00,
2013-01-29 18:26:00,58.7,56.4,30.03,North,360,0.0,0.0,92,0.00,CLR,,0.00,WeatherDisplay:10.37,2013-01-30 00:26:00,
2013-01-29 18:31:00,58.7,56.4,30.03,North,360,0.0,0.0,92,0.00,CLR,,0.00,WeatherDisplay:10.37,2013-01-30 00:31:00,
2013-01-29 18:36:00,58.6,56.3,30.03,North,360,0.0,0.0,92,0.00,CLR,,0.00,WeatherDisplay:10.37,2013-01-30 00:36:00,
2013-01-29 18:41:00,58.6,56.3,30.03,North,360,0.0,0.0,92,0.00,CLR,,0.00,WeatherDisplay:10.37,2013-01-30 00:41:00,
2013-01-29 18:46:00,58.6,56.3,30.03,North,360,0.0,0.0,92,0.00,CLR,,0.00,WeatherDisplay:10.37,2013-01-30 00:46:00,
2013-01-29 18:51:00,58.4,56.1,30.03,North,360,0.0,0.0,92,0.00,CLR,,0.00,WeatherDisplay:10.37,2013-01-30 00:51:00,
2013-01-29 18:56:00,58.4,56.1,30.02,North,360,0.0,0.0,92,0.00,CLR,,0.00,WeatherDisplay:10.37,2013-01-30 00:56:00,
2013-01-29 19:01:00,58.4,56.1,30.02,North,360,0.0,0.0,92,0.00,CLR,,0.00,WeatherDisplay:10.37,2013-01-30 01:01:00,
2013-01-29 19:06:00,58.4,56.1,30.03,North,360,0.0,0.0,92,0.00,CLR,,0.00,WeatherDisplay:10.37,2013-01-30 01:06:00,
2013-01-29 19:11:00,58.6,56.3,30.02,North,360,0.0,0.0,92,0.00,CLR,,0.00,WeatherDisplay:10.37,2013-01-30 01:11:00,
2013-01-29 19:16:00,58.6,56.3,30.03,North,360,0.0,0.0,92,0.00,CLR,,0.00,WeatherDisplay:10.37,2013-01-30 01:16:00,
2013-01-29 19:21:00,58.4,56.1,30.03,North,360,0.0,0.0,92,0.00,CLR,,0.00,WeatherDisplay:10.37,2013-01-30 01:21:00,
2013-01-29 19:26:00,58.6,56.3,30.02,North,360,1.1,0.0,92,0.00,CLR,,0.00,WeatherDisplay:10.37,2013-01-30 01:26:00,
2013-01-29 19:31:00,58.6,56.3,30.03,East,79,1.1,0.0,92,0.00,CLR,,0.00,WeatherDisplay:10.37,2013-01-30 01:31:00,
2013-01-29 19:36:00,58.6,56.3,30.03,East,79,0.0,0.0,92,0.00,CLR,,0.00,WeatherDisplay:10.37,2013-01-30 01:36:00,
2013-01-29 19:41:00,58.6,56.3,30.03,East,79,0.0,0.0,92,0.00,CLR,,0.00,WeatherDisplay:10.37,2013-01-30 01:41:00,
2013-01-29 19:46:00,58.6,56.3,30.02,East,79,1.1,1.1,92,0.00,CLR,,0.00,WeatherDisplay:10.37,2013-01-30 01:46:00,
2013-01-29 19:51:00,58.7,56.4,30.02,East,79,0.0,0.0,92,0.00,CLR,,0.00,WeatherDisplay:10.37,2013-01-30 01:51:00,
2013-01-29 19:56:00,58.7,56.4,30.02,East,79,0.0,0.0,92,0.00,CLR,,0.00,WeatherDisplay:10.37,2013-01-30 01:56:00,
2013-01-29 20:01:00,58.7,56.4,30.02,East,79,0.0,0.0,92,0.00,CLR,,0.00,WeatherDisplay:10.37,2013-01-30 02:01:00,
2013-01-29 20:06:00,58.7,56.4,30.02,East,79,2.3,0.0,92,0.00,CLR,,0.00,WeatherDisplay:10.37,2013-01-30 02:06:00,
2013-01-29 20:11:00,58.7,56.4,30.01,East,79,1.1,1.1,92,0.00,CLR,,0.00,WeatherDisplay:10.37,2013-01-30 02:11:00,
2013-01-29 20:16:00,58.7,56.7,30.01,East,79,0.0,0.0,93,0.00,CLR,,0.00,WeatherDisplay:10.37,2013-01-30 02:16:00,
2013-01-29 20:21:00,58.9,56.9,30.01,East,79,0.0,0.0,93,0.00,CLR,,0.00,WeatherDisplay:10.37,2013-01-30 02:21:00,
2013-01-29 20:26:00,58.9,56.9,30.01,East,79,0.0,0.0,93,0.00,CLR,,0.00,WeatherDisplay:10.37,2013-01-30 02:26:00,
2013-01-29 20:31:00,58.9,56.9,30.00,East,101,3.5,3.5,93,0.00,CLR,,0.00,WeatherDisplay:10.37,2013-01-30 02:31:00,
2013-01-29 20:36:00,59.0,57.0,30.00,East,101,2.3,2.3,93,0.00,CLR,,0.00,WeatherDisplay:10.37,2013-01-30 02:36:00,
2013-01-29 20:41:00,59.2,57.2,29.99,East,101,1.1,1.1,93,0.00,CLR,,0.00,WeatherDisplay:10.37,2013-01-30 02:41:00,
2013-01-29 20:46:00,59.5,57.5,29.99,East,101,1.1,0.0,93,0.00,CLR,,0.00,WeatherDisplay:10.37,2013-01-30 02:46:00,
2013-01-29 20:51:00,60.4,58.4,29.99,East,101,0.0,0.0,93,0.00,CLR,,0.00,WeatherDisplay:10.37,2013-01-30 02:51:00,
2013-01-29 20:56:00,61.2,58.9,29.98,East,101,0.0,0.0,92,0.00,CLR,,0.00,WeatherDisplay:10.37,2013-01-30 02:56:00,
2013-01-29 21:01:00,61.3,58.0,29.98,East,101,0.0,0.0,89,0.00,CLR,,0.00,WeatherDisplay:10.37,2013-01-30 03:01:00,
2013-01-29 21:06:00,61.3,58.0,29.98,East,101,1.1,1.1,89,0.00,CLR,,0.00,WeatherDisplay:10.37,2013-01-30 03:06:00,
2013-01-29 21:11:00,61.5,58.2,29.97,East,101,0.0,0.0,89,0.00,CLR,,0.00,WeatherDisplay:10.37,2013-01-30 03:11:00,
2013-01-29 21:16:00,61.6,58.3,29.98,East,101,1.1,1.1,89,0.00,CLR,,0.00,WeatherDisplay:10.37,2013-01-30 03:16:00,
2013-01-29 21:21:00,62.1,58.8,29.98,ESE,102,0.0,0.0,89,0.00,CLR,,0.00,WeatherDisplay:10.37,2013-01-30 03:21:00,
2013-01-29 21:26:00,62.6,58.7,29.97,ESE,102,1.1,1.1,87,0.00,CLR,,0.00,WeatherDisplay:10.37,2013-01-30 03:26:00,
2013-01-29 21:31:00,63.1,59.2,29.97,ESE,102,0.0,0.0,87,0.00,CLR,,0.00,WeatherDisplay:10.37,2013-01-30 03:31:00,
2013-01-29 21:36:00,63.5,59.2,29.96,WNW,284,3.0,3.0,86,0.00,CLR,,0.00,WeatherDisplay:10.37,2013-01-30 03:36:00,
2013-01-29 21:41:00,64.5,59.2,29.96,South,184,0.0,0.0,83,0.00,CLR,,0.00,WeatherDisplay:10.37,2013-01-30 03:41:00,
2013-01-29 21:46:00,65.0,59.7,29.95,SSE,168,2.3,2.3,83,0.00,CLR,,0.00,WeatherDisplay:10.37,2013-01-30 03:46:00,
2013-01-29 21:51:00,65.3,60.0,29.95,SE,145,2.3,2.3,83,0.00,CLR,,0.00,WeatherDisplay:10.37,2013-01-30 03:51:00,
2013-01-29 21:56:00,65.8,59.8,29.94,SW,226,0.0,0.0,81,0.00,CLR,,0.00,WeatherDisplay:10.37,2013-01-30 03:56:00,
2013-01-29 22:01:00,66.3,59.9,29.94,WSW,252,3.5,3.5,80,0.00,CLR,,0.00,WeatherDisplay:10.37,2013-01-30 04:01:00,
2013-01-29 22:06:00,66.8,60.1,29.94,West,269,0.0,0.0,79,0.00,CLR,,0.00,WeatherDisplay:10.37,2013-01-30 04:06:00,
2013-01-29 22:11:00,67.3,60.2,29.94,South,171,0.0,0.0,78,0.00,CLR,,0.00,WeatherDisplay:10.37,2013-01-30 04:11:00,
2013-01-29 22:16:00,67.3,60.2,29.94,WSW,248,1.1,1.1,78,0.00,CLR,,0.00,WeatherDisplay:10.37,2013-01-30 04:16:00,
2013-01-29 22:21:00,67.4,60.3,29.93,WSW,248,0.0,0.0,78,0.00,CLR,,0.00,WeatherDisplay:10.37,2013-01-30 04:21:00,
2013-01-29 22:26:00,67.3,60.2,29.93,South,177,1.1,1.1,78,0.00,CLR,,0.00,WeatherDisplay:10.37,2013-01-30 04:26:00,
2013-01-29 22:31:00,67.1,60.0,29.93,South,180,1.1,1.1,78,0.00,CLR,,0.00,WeatherDisplay:10.37,2013-01-30 04:31:00,
2013-01-29 22:36:00,67.4,59.9,29.92,SSW,208,8.1,8.1,77,0.00,CLR,,0.00,WeatherDisplay:10.37,2013-01-30 04:36:00,
2013-01-29 22:41:00,67.8,60.3,29.92,SW,214,1.1,0.0,77,0.00,CLR,,0.00,WeatherDisplay:10.37,2013-01-30 04:41:00,
2013-01-29 22:46:00,67.8,60.3,29.92,SSW,205,0.0,0.0,77,0.00,CLR,,0.00,WeatherDisplay:10.37,2013-01-30 04:46:00,
2013-01-29 22:51:00,67.8,60.0,29.92,SSE,155,1.1,0.0,76,0.00,CLR,,0.00,WeatherDisplay:10.37,2013-01-30 04:51:00,
2013-01-29 22:56:00,68.1,60.2,29.91,SSW,210,3.5,3.5,76,0.00,CLR,,0.00,WeatherDisplay:10.37,2013-01-30 04:56:00,
2013-01-29 23:02:00,68.1,60.2,29.91,SE,134,1.1,1.1,76,0.00,CLR,,0.00,WeatherDisplay:10.37,2013-01-30 05:02:00,
2013-01-29 23:03:00,68.1,60.2,29.91,SE,134,1.1,1.1,76,0.00,CLR,,0.00,WeatherDisplay:10.37,2013-01-30 05:03:00,
2013-01-29 23:08:00,68.1,60.2,29.91,South,187,3.5,3.5,76,0.00,CLR,,0.00,WeatherDisplay:10.37,2013-01-30 05:08:00,
2013-01-29 23:13:00,68.3,60.1,29.91,South,188,2.3,2.3,75,0.00,CLR,,0.00,WeatherDisplay:10.37,2013-01-30 05:13:00,
2013-01-29 23:18:00,68.6,60.0,29.91,WSW,252,3.5,3.5,74,0.00,CLR,,0.00,WeatherDisplay:10.37,2013-01-30 05:18:00,
2013-01-29 23:23:00,68.8,60.2,29.90,South,172,3.5,3.5,74,0.00,CLR,,0.00,WeatherDisplay:10.37,2013-01-30 05:23:00,
2013-01-29 23:28:00,68.8,60.2,29.90,South,188,10.4,10.4,74,0.00,CLR,,0.00,WeatherDisplay:10.37,2013-01-30 05:28:00,
2013-01-29 23:33:00,68.6,60.0,29.90,SSW,204,11.5,11.5,74,0.00,CLR,,0.00,WeatherDisplay:10.37,2013-01-30 05:33:00,
2013-01-29 23:38:00,68.8,59.8,29.90,SSW,208,3.5,3.5,73,0.00,CLR,,0.00,WeatherDisplay:10.37,2013-01-30 05:38:00,
2013-01-29 23:43:00,68.8,59.8,29.90,SW,236,5.8,0.0,73,0.00,CLR,,0.00,WeatherDisplay:10.37,2013-01-30 05:43:00,
2013-01-29 23:48:00,68.8,59.8,29.89,SW,221,3.5,3.5,73,0.00,CLR,,0.00,WeatherDisplay:10.37,2013-01-30 05:48:00,
2013-01-29 23:53:00,68.8,59.8,29.88,SSE,161,9.2,9.2,73,0.00,CLR,,0.00,WeatherDisplay:10.37,2013-01-30 05:53:00,
2013-01-29 23:58:00,68.8,59.8,29.88,SE,144,3.5,3.5,73,0.00,CLR,,0.00,WeatherDisplay:10.37,2013-01-30 05:58:00,